Regional Weather Roundup
Issued by NWS

Home | Current Version | Previous Version | Text Only | Print | Product List | Glossary Off
Versions: 1 2 3 4 5 6 7 8 9 10 11 12 13 14 15 16 17 18 19 20 21 22 23 24 25 26 27 28 29 30 31 32 33 34 35 36 37 38 39 40 41 42 43 44 45 46 47 48 49 50

542
ASUS43 KMKX 190920
RWRWI

WISCONSIN REGIONAL WEATHER ROUNDUP
NATIONAL WEATHER SERVICE MILWAUKEE/SULLIVAN WI
300 AM CST THU JAN 19 2017

NOTE: "FAIR" INDICATES FEW OR NO CLOUDS BELOW 12,000 FEET WITH NO
SIGNIFICANT WEATHER AND/OR OBSTRUCTIONS TO VISIBILITY.

WIZ001-002-006>008-014>016-023>028-191000-
NORTHWEST WISCONSIN

CITY           SKY/WX    TMP DP  RH WIND       PRES   REMARKS
SUPERIOR ARPT  CLOUDY    32  31  98 SW3       29.79S FOG
ASHLAND        CLOUDY    32  30  92 S3        29.82S FOG
HAYWARD        CLOUDY    29  27  92 S5        29.82F FOG     WCI  24
SIREN          CLOUDY    31  30  99 SE5       29.81S FOG     WCI  26
CUMBERLAND     FOG       27  25  93 CALM      29.83F VSB 1/4
RICE LAKE      FOG       28  27  99 SE6       29.86S VSB 1/4 WCI  21
CHETEK         NOT AVBL
LADYSMITH      FOG       30  30  99 S5        29.88S VSB 1/2 WCI  25
EAU CLAIRE     FOG       30  29  96 S7        29.88S VSB 1   WCI  23
MENOMONIE      FOG       25  24  96 MISG      29.87S VSB 1/4
NEW RICHMOND   CLOUDY    31  31  99 S8        29.83S WCI  24
OSCEOLA        CLOUDY    32  32 100 S8        29.84F WCI  25
$$

WIZ003>005-009-010-017-018-191000-
NORTH CENTRAL WISCONSIN

CITY           SKY/WX    TMP DP  RH WIND       PRES   REMARKS
MANITOWISH WTR CLOUDY    31  31 100 SW7       29.83F FOG     WCI  24
ARBOR VITAE    CLOUDY    32  30  94 S5        29.84F FOG     WCI  27
WOODRUFF       CLOUDY    32  30  94 S5        29.84F FOG     WCI  27
RHINELANDER    FOG       31  31 100 SW7       29.86S VSB 1/4 WCI  24
EAGLE RIVER    CLOUDY    32  32 100 SW9       29.84S FOG     WCI  24
LAND O LAKES   CLOUDY    31  31 100 SW3       29.86S FOG
PHILLIPS       FOG       30  30 100 S8        29.85S VSB 1/2 WCI  22
TOMAHAWK       CLOUDY    30  29  96 CALM      29.88S FOG
MEDFORD        FOG       30  29  98 S6        29.88S VSB 1/4 WCI  24
MERRILL        FOG       30  30 100 CALM        N/A  VSB 1/2
$$

WIZ029-030-035-036-043>047-191000-
CENTRAL WISCONSIN

CITY           SKY/WX    TMP DP  RH WIND       PRES   REMARKS
WAUSAU         FOG       30  30 100 SW7       29.90S VSB 1/2 WCI  23
MOSINEE        SNOW      30  30 100 SW8       29.92S VSB 1/4 WCI  23
MARSHFIELD     FOG       31  30  96 SW7       29.91R VSB 1/4 WCI  24
STEVENS POINT  FOG       29  29 100 SW7       29.94R VSB 1/2 WCI  22
WAUPACA        CLOUDY    34  32  93 CALM      29.96R FOG
WAUTOMA        CLOUDY    33  32  96 SW8       29.96S FOG     WCI  26
WISC RAPIDS    CLOUDY    32  32 100 SW8       29.95R FOG     WCI  25
CAMP DOUGLAS   CLOUDY    35  33  93 S3        29.94S
$$

WIZ011>013-019>022-031-037>040-048>050-191000-
NORTHEAST WISCONSIN

CITY           SKY/WX    TMP DP  RH WIND       PRES   REMARKS
ANTIGO         FOG       29  29 100 W7        29.88S VSB 1/2 WCI  22
SHAWANO        CLOUDY    32  30  93 SW5       29.94R FOG     WCI  27
OCONTO         CLOUDY    29  28  95 SW5       29.93F WCI  24
STURGEON BAY   CLOUDY    30  29  96 SW8       29.93F FOG     WCI  22
GREEN BAY      CLOUDY    34  32  92 SW9       29.95S FOG     WCI  27
MANITOWOC      CLOUDY    32  30  92 SW5       29.97S FOG     WCI  27
APPLETON       CLOUDY    32  32 100 SW10      29.94R FOG     WCI  24
CLINTONVILLE   CLOUDY    32  32 100 SW9       29.94S FOG     WCI  24
OSHKOSH        CLOUDY    33  31  92 SW9G17    29.96S FOG     WCI  25
$$

WIZ032>034-041-042-053>061-191000-
SOUTHWEST WISCONSIN

CITY           SKY/WX    TMP DP  RH WIND       PRES   REMARKS
LA CROSSE      CLEAR     37  33  85 S8        29.93F WCI  31
SPARTA         MOCLDY    33  33  98 S3        29.95S FOG
VIROQUA        CLOUDY    33  33 100 S7        29.93S VSB 1/2 WCI  27
BOSCOBEL       PTCLDY    35  33  92 CALM      29.97F FOG
PRAIRIE DU CHI PTCLDY    33  32  96 CALM      29.97S FOG
PLATTEVILLE    CLOUDY    33  33 100 SW8       29.99S VSB 1/4 WCI  27
$$

WIZ056-057-062-063-064-067-068-191000-
SOUTH CENTRAL WISCONSIN

CITY           SKY/WX    TMP DP  RH WIND       PRES   REMARKS
REEDSBURG      CLOUDY    34  34 100 S6        29.96S FOG     WCI  28
BARABOO/DELLS  CLOUDY    34  33  97 SW6       29.96R FOG     WCI  28
LONE ROCK      CLOUDY    35  32  88 CALM      29.98F FOG
MINERAL POINT  FOG       34  34 100 S10       29.97S VSB 1/4 WCI  26
MADISON        CLOUDY    33  33 100 SW5       29.98F FOG     WCI  29
MIDDLETON      CLOUDY    35  35 100 SW8       29.98F WCI  28
WATERTOWN      CLOUDY    33  33 100 SW8       29.99S FOG     WCI  26
MONROE         FOG       32  32 100 S9        29.98S VSB 1/4 WCI  24
JANESVILLE     CLEAR     32  32 100 CALM      30.00F FOG
$$

WIZ051-052-058>065-066-070>072-191000-
SOUTHEAST WISCONSIN

CITY           SKY/WX    TMP DP  RH WIND       PRES   REMARKS
MILWAUKEE      CLOUDY    35  33  92 SW9       30.00S FOG     WCI  28
WAUKESHA       CLOUDY    32  32 100 SW8       30.00S FOG     WCI  25
MILWAUKEE/TIMM CLOUDY    34  32  93 SW9       30.01S FOG     WCI  26
RACINE         CLOUDY    33  32  96 SW8       30.02F FOG     WCI  26
KENOSHA        CLOUDY    34  32  92 SW9       30.02S FOG     WCI  27
FOND DU LAC    CLOUDY    34  31  88 SW10      29.97S FOG     WCI  26
SHEBOYGAN      CLOUDY    33  31  92 SW14      29.97R FOG     WCI  23
WEST BEND      CLOUDY    34  34 100 SW7       29.98S FOG     WCI  28
JUNEAU         FOG       32  32  99 S10       29.99F VSB 1/2 WCI  24
$$

LSZ147-162-191000-
LAKE SUPERIOR

STATION/POSITION TIME  TEMP    WIND        PRES    WAVE
                       AIR SEA DIR/SP/G            HT/PER
                 (UTC) (F)     (DEG/KT/KT) (MB)    (FT/S)
DEVILS ISLAND    0900   33     160/  6/  7 1010.3S
PORT WING        0830   27      CALM  /  2 1009.5S
SAXON HARBOR     0740   33     180/  3/  6 1009.8S
$$

LMZ867-665-643>646-191000-
LAKE MICHIGAN

STATION/POSITION TIME  TEMP    WIND        PRES    WAVE
                       AIR SEA DIR/SP/G            HT/PER
                 (UTC) (F)     (DEG/KT/KT) (MB)    (FT/S)
NORTHPORT PIER   0840   33     250/  5/ 12 1012.9F
SISTER BAY       0650   34     220/ 13/ 16   N/A
KEWAUNEE LAKESHO 0854   32     230/  5/ 10 1014.0R
SHEBOYGAN LAKESH 0900   34     230/  9/ 11 1015.4R
PORT WASHINGTON  0840   35     240/  5/ 12 1016.6S
MILWAUKEE LAKESH 0850   35     240/  7/  9   N/A
KENOSHA   LAKESH 0900   35     230/  6/  8 1016.6
$$

TC  - TEMPERATURE IN CELSIUS
VSB - VISIBILITY IN STATUTE MILES
WCI - WIND CHILL INDEX
HX  - HEAT INDEX





USA.gov is the U.S. government's official web portal to all federal, state and local government web resources and services.